Location: Newark
(25.6108°S, 54.5803°W)
Time: 08:06:39
(UTC+00:00)

Courier 1B - Pass Details

Date: 01 November 2020
Orbit: 962 x 1209 km, 28.3° (Epoch: 02 December)

Event Time Altitude Azimuth Distance (km) Brightness Sun altitude
Rises 08:56:20 0° 279° (W) 4,098 10.1 0.7°
Reaches altitude 10° 09:02:56 10° 318° (NW) 3,081 9.6 2.1°
Maximum altitude 09:03:48 10° 325° (NW) 3,057 9.7 2.3°
Drops below altitude 10° 09:04:40 10° 332° (NNW) 3,063 9.7 2.5°
Sets 09:11:04 0° 12° (NNE) 3,943 10.6 3.9°
